Tracking 29892 objects as of 21-Nov-2024
HD Live streaming from Space Station
objects crossing your sky now

STARLINK-1598

Track STARLINK-1598 now!
10-day predictions
STARLINK-1598 is classified as:


NORAD ID: 46160
Int'l Code: 2020-057AV
Perigee: 553.0 km
Apogee: 555.7 km
Inclination: 53.1 °
Period: 95.6 minutes
Semi major axis: 6925 km
RCS: Unknown
Launch date: August 18, 2020
Source: United States (US)
Launch site: AIR FORCE EASTERN TEST RANGE (AFETR)
Your satellite tracking list
Your tracking list is empty




NASA's NSSDC Master Catalog

Two Line Element Set (TLE):
1 46160U 20057AV  24325.24072156  .00022652  00000-0  15344-2 0  9990
2 46160  53.0544 266.4966 0001935  88.1746 271.9465 15.06407884236087
Source of the keplerian elements: AFSPC